DateTimeUTC,F1_A11,F1_S11,BsB_S11,BsG_S11,BsR_S11,BbsB_S11,BbsG_S11,BbsR_S11,BaB_A11,BaG_A11,BaR_A11,T_S11,U_S11,P_S11,T1_A11
2020-05-14T00:00:00Z,00000388,20000608,,,,,,,,,,24.7,01.2,0672.6,31.0
2020-05-14T00:01:00Z,00000388,20000608,,,,,,,,,,24.7,01.1,0672.6,31.0
2020-05-14T00:02:00Z,00000388,20000608,,,,,,,,,,24.7,01.1,0672.6,31.0
2020-05-14T00:03:00Z,00000388,60000608,,,,,,,,,,24.7,01.1,0672.6,31.0
2020-05-14T00:04:00Z,00000388,40000608,0001.91,0001.18,0000.56,0000.42,-000.18,0000.10,0000.06,0000.08,0000.17,24.6,01.3,0673.6,31.0
2020-05-14T00:05:00Z,00000388,00000608,0000.89,0001.25,0001.28,0001.27,0000.41,0000.48,0000.18,0000.12,0000.11,24.5,01.3,0673.6,31.0
2020-05-14T00:06:00Z,00000388,01000608,0001.95,0001.15,0000.81,0000.33,0000.00,-000.29,0000.01,0000.05,0000.04,24.5,01.3,0673.6,31.0
2020-05-14T00:07:00Z,00000388,01000608,0002.65,0001.25,0000.61,0000.34,0000.11,-000.10,0000.16,0000.17,0000.06,24.5,01.2,0673.6,31.0
2020-05-14T00:08:00Z,00000388,01000608,0002.17,0001.02,0000.78,0000.12,0000.02,0000.12,0000.06,0000.01,0000.05,24.5,01.2,0673.6,30.9
2020-05-14T00:09:00Z,00000388,01000608,0002.73,0000.98,0000.91,-000.20,0000.52,0000.15,0000.07,0000.10,-000.05,24.5,01.2,0673.6,31.0
2020-05-14T00:10:00Z,00000388,01000608,0001.16,0000.89,0000.54,0000.45,0000.24,-000.33,0000.11,0000.16,0000.24,24.5,01.1,0673.6,31.0
2020-05-14T00:11:00Z,00000388,01000608,0000.92,0001.23,0000.59,0000.18,0000.11,0000.18,0000.07,-000.07,0000.01,24.4,01.2,0673.6,31.0
2020-05-14T00:12:00Z,00000388,01000608,0003.48,0001.04,0001.00,0000.31,0000.09,-000.18,0000.05,-000.10,-000.06,24.4,01.2,0673.6,31.0
2020-05-14T00:13:00Z,00000388,01000608,0001.25,0001.33,0000.94,0001.07,0000.44,-000.19,0000.15,0000.27,0000.12,24.4,01.1,0673.6,30.9
2020-05-14T00:14:00Z,00000388,01000608,0002.83,0001.11,0001.43,0000.27,0000.36,-000.23,0000.27,0000.16,0000.04,24.4,01.1,0673.5,31.0
2020-05-14T00:15:00Z,00000388,01000608,0002.81,0000.97,0000.67,0000.97,-000.34,0000.24,-000.13,0000.05,0000.14,24.4,01.0,0673.5,31.0
2020-05-14T00:16:00Z,00000388,01000608,0002.08,0001.58,0000.77,0000.22,-000.25,-000.12,0000.23,0000.17,-000.01,24.4,01.1,0673.5,31.0
2020-05-14T00:17:00Z,00000388,01000608,0002.88,0001.48,0001.00,0000.11,-000.13,-000.19,0000.20,0000.15,0000.32,24.4,01.0,0673.5,31.0
2020-05-14T00:18:00Z,00000388,01000608,0001.94,0001.37,0000.45,0000.37,0000.08,0000.18,0000.15,0000.15,-000.03,24.4,01.0,0673.4,31.0
2020-05-14T00:19:00Z,00000388,01000608,0002.50,0001.19,0000.52,-000.17,-000.34,0000.36,-000.12,-000.27,-000.06,24.4,01.1,0673.5,30.9
2020-05-14T00:20:00Z,00000388,01000608,0001.25,0002.01,0000.98,0000.83,0000.07,-000.34,0000.03,0000.18,-000.14,24.4,01.0,0673.4,31.0
2020-05-14T00:21:00Z,00000388,01000608,0001.60,0001.73,0000.46,0000.09,0000.21,0000.06,0000.11,0000.14,0000.26,24.4,00.9,0673.4,31.0
2020-05-14T00:22:00Z,00000388,01000608,0002.35,0001.30,0000.79,0000.24,-000.25,0000.12,0000.07,0000.21,0000.02,24.4,00.9,0673.4,31.0
2020-05-14T00:23:00Z,00000388,01000608,0002.50,0001.24,0000.57,0000.86,0000.04,0000.07,0000.15,0000.07,0000.16,24.4,00.9,0673.4,31.0
2020-05-14T00:24:00Z,00000388,01000608,0000.87,0001.34,0000.74,0000.30,0000.05,-000.00,0000.11,0000.01,0000.05,24.4,00.9,0673.4,31.0
2020-05-14T00:25:00Z,00000388,01000608,0002.76,0001.05,0000.54,0000.77,0000.26,0000.19,-000.02,0000.17,0000.06,24.4,00.9,0673.4,31.0
2020-05-14T00:26:00Z,00000388,01000608,0002.39,0001.16,0000.86,0000.81,-000.16,-000.21,0000.13,-000.06,-000.07,24.4,00.9,0673.4,31.0
2020-05-14T00:27:00Z,00000388,01000608,0001.94,0000.93,0000.91,0000.54,0000.14,0000.42,0000.10,0000.11,0000.15,24.4,00.9,0673.4,31.0
2020-05-14T00:28:00Z,00000388,01000608,0003.25,0000.98,0001.00,0000.70,0000.21,0000.03,0000.05,0000.08,-000.05,24.4,00.8,0673.4,31.0
2020-05-14T00:29:00Z,00000388,01000608,0003.11,0001.14,0000.10,0000.69,-000.19,-000.22,0000.11,0000.05,0000.19,24.4,00.8,0673.3,31.0
2020-05-14T00:30:00Z,00000388,01000608,0002.10,0000.89,0000.13,0000.40,0000.10,-000.28,0000.19,0000.14,-000.01,24.4,00.8,0673.3,31.0
2020-05-14T00:31:00Z,00000388,01000608,0001.64,0001.15,0000.49,0000.66,0000.34,0000.11,0000.02,-000.06,-000.03,24.4,00.8,0673.3,31.0
2020-05-14T00:32:00Z,00000388,01000608,0001.86,0001.27,0000.78,0000.63,0000.06,-000.15,-000.06,0000.15,0000.14,24.3,00.9,0673.3,31.0
2020-05-14T00:33:00Z,00000388,01000608,0002.10,0000.34,0000.34,-000.17,0000.44,0000.10,-000.04,0000.07,-000.06,24.4,00.7,0673.3,31.0
2020-05-14T00:34:00Z,00000388,01000608,-000.40,0000.95,0000.04,0001.17,-000.05,-000.41,0000.38,-000.05,0000.19,24.3,00.7,0673.3,31.0
2020-05-14T00:35:00Z,00000388,01000608,0001.97,0001.23,0000.71,0000.25,0000.20,0000.29,-000.17,-000.05,-000.12,24.4,00.7,0673.3,31.0
2020-05-14T00:36:00Z,00000388,01000608,0000.91,0001.08,0000.73,0000.47,0000.02,0000.20,0000.18,0000.11,0000.08,24.3,00.7,0673.3,31.0
2020-05-14T00:37:00Z,00000388,01000608,0001.51,0000.76,0000.56,0000.36,-000.20,0000.01,0000.12,0000.07,-000.04,24.3,00.6,0673.3,31.0
2020-05-14T00:38:00Z,00000388,01000608,0001.24,0000.29,0000.81,-000.68,0000.22,0000.10,-000.18,0000.15,0000.05,24.3,00.6,0673.3,31.0
2020-05-14T00:39:00Z,00000388,01000608,0002.59,0000.79,0000.99,0000.61,0000.13,-000.13,0000.09,-000.14,0000.18,24.3,00.6,0673.3,31.0
2020-05-14T00:40:00Z,00000388,01000608,0001.64,0000.86,0000.38,0000.48,0000.09,0000.48,0000.06,0000.17,-000.16,24.3,00.6,0673.3,31.0
2020-05-14T00:41:00Z,00000388,01000608,0000.43,0001.20,0000.49,0000.42,-000.28,-000.16,0000.18,0000.26,0000.23,24.3,00.5,0673.4,31.0
2020-05-14T00:42:00Z,00000388,01000608,-000.41,0000.67,0000.21,0000.15,-000.12,-000.26,0000.03,-000.16,0000.03,24.3,00.6,0673.4,31.0
2020-05-14T00:43:00Z,00000388,01000608,0001.57,0001.32,0000.73,0000.60,-000.02,0000.26,0000.25,0000.10,-000.01,24.3,00.5,0673.4,31.0
2020-05-14T00:44:00Z,00000388,01000608,0001.81,0000.67,0000.98,0000.19,0000.63,0000.15,-000.03,0000.18,0000.02,24.3,00.5,0673.4,31.0
2020-05-14T00:45:00Z,00000388,01000608,0002.13,0001.65,0000.51,0000.94,-000.12,-000.24,0000.13,0000.02,0000.08,24.3,00.5,0673.4,31.0
2020-05-14T00:46:00Z,00000388,01000608,0001.58,0000.87,0000.27,0000.09,-000.39,-000.04,0000.21,0000.16,0000.05,24.3,00.5,0673.3,30.9
2020-05-14T00:47:00Z,00000388,01000608,0001.29,0001.25,0000.21,0000.73,-000.22,0000.13,-000.03,0000.08,0000.13,24.3,00.4,0673.3,31.0
2020-05-14T00:48:00Z,00000388,01000608,0001.91,0001.28,0000.53,0000.36,-000.18,0000.07,0000.24,0000.17,0000.20,24.3,00.5,0673.3,30.9
2020-05-14T00:49:00Z,00000388,01000608,0002.10,0001.12,0000.55,0000.71,-000.00,-000.08,0000.02,-000.06,0000.01,24.3,00.5,0673.3,31.0
2020-05-14T00:50:00Z,00000388,01000608,0001.27,0000.74,0000.32,0000.93,-000.27,-000.01,0000.08,0000.11,0000.02,24.3,00.5,0673.3,31.0
2020-05-14T00:51:00Z,00000388,01000608,0001.60,0001.03,0000.89,-000.38,0000.10,-000.02,0000.21,0000.23,0000.06,24.3,00.5,0673.3,30.9
2020-05-14T00:52:00Z,00000388,01000608,0001.16,0001.36,0000.12,0000.12,-000.03,0000.20,-000.07,-000.12,0000.05,24.3,00.5,0673.3,31.0
2020-05-14T00:53:00Z,00000388,01000608,0001.38,0001.09,0000.64,-000.00,-000.06,0000.14,0000.09,0000.23,0000.03,24.3,00.5,0673.3,31.0
2020-05-14T00:54:00Z,00000388,01000608,0003.29,0001.15,0000.42,0001.00,0000.17,0000.01,0000.12,0000.14,0000.04,24.3,00.5,0673.3,31.0
2020-05-14T00:55:00Z,00000388,01000608,0002.29,0001.49,0000.46,0000.66,0000.02,0000.23,0000.22,0000.01,0000.17,24.2,00.5,0673.3,31.0
2020-05-14T00:56:00Z,00000388,01000608,0002.39,0001.08,0000.58,0000.16,0000.02,-000.08,0000.14,0000.17,0000.14,24.3,00.4,0673.3,30.9
2020-05-14T00:57:00Z,00000388,41000608,,,,,,,,,,24.3,00.2,0673.3,31.0
2020-05-14T00:58:00Z,00000388,61000608,,,,,,,,,,24.4,00.6,0672.3,31.0
2020-05-14T00:59:00Z,00000388,21000608,,,,,,,,,,24.5,00.4,0672.3,31.0
2020-05-14T01:00:00Z,00000388,21000608,,,,,,,,,,24.5,00.4,0672.3,31.0
2020-05-14T01:01:00Z,00000388,21000608,,,,,,,,,,24.5,00.4,0672.3,31.0
2020-05-14T01:02:00Z,00000388,21000608,,,,,,,,,,24.5,00.4,0672.3,31.0
2020-05-14T01:03:00Z,00000388,61000608,,,,,,,,,,24.5,00.4,0672.3,31.0
2020-05-14T01:04:00Z,00000388,41000608,0002.31,0000.76,0000.31,0000.18,0000.53,-000.28,0000.09,-000.08,-000.13,24.3,00.3,0673.3,31.0
2020-05-14T01:05:00Z,00000388,01000608,0000.87,0000.34,-000.21,0000.82,0000.49,-000.28,-000.01,-000.05,-000.07,24.2,00.3,0673.4,30.9
2020-05-14T01:06:00Z,00000388,01000608,0000.53,0000.62,0000.11,0000.74,0000.42,-000.01,0000.08,0000.06,0000.25,24.2,00.3,0673.4,30.9
2020-05-14T01:07:00Z,00000388,01000608,0001.61,0000.91,-000.00,0001.13,0000.36,-000.25,0000.06,0000.24,0000.10,24.2,00.3,0673.4,30.9
2020-05-14T01:08:00Z,00000388,01000608,0000.18,0000.67,0000.21,-000.17,0000.11,-000.06,0000.13,0000.02,-000.01,24.2,00.3,0673.4,30.9
2020-05-14T01:09:00Z,00000388,01000608,0001.24,0000.63,0000.24,0000.64,0000.27,-000.20,0000.04,-000.00,-000.00,24.2,00.3,0673.4,31.0
2020-05-14T01:10:00Z,00000388,01000608,0001.36,0000.77,0000.59,-000.25,0000.19,-000.22,0000.14,0000.26,0000.10,24.2,00.4,0673.4,31.0
2020-05-14T01:11:00Z,00000388,01000608,0000.71,0000.62,0000.29,0000.77,0000.25,-000.08,0000.28,0000.02,0000.12,24.2,00.4,0673.4,30.9
2020-05-14T01:12:00Z,00000388,01000608,0001.62,0001.01,0000.65,-000.39,-000.01,0000.23,0000.02,0000.14,-000.03,24.2,00.3,0673.5,31.0
2020-05-14T01:13:00Z,00000388,01000608,0001.50,0000.90,0000.31,0000.97,0000.46,0000.10,0000.04,-000.06,0000.15,24.2,00.3,0673.4,31.0
2020-05-14T01:14:00Z,00000388,01000608,0000.18,-000.03,-000.02,0000.89,0000.26,-000.67,0000.12,0000.16,0000.12,24.2,00.3,0673.4,30.9
2020-05-14T01:15:00Z,00000388,01000608,0000.70,0000.62,0000.10,-000.02,0000.30,-000.49,0000.13,0000.01,-000.06,24.2,00.3,0673.4,30.9
2020-05-14T01:16:00Z,00000388,01000608,0000.93,0000.70,0000.35,0000.99,0000.06,-000.08,0000.09,0000.22,0000.11,24.2,00.4,0673.4,31.0
2020-05-14T01:17:00Z,00000388,01000608,0001.01,0000.92,0000.28,0000.72,0000.60,0000.05,0000.04,0000.09,0000.14,24.2,00.4,0673.4,30.9
2020-05-14T01:18:00Z,00000388,01000608,0000.11,0000.54,0000.62,0000.30,0000.16,0000.30,0000.04,-000.01,-000.09,24.2,00.4,0673.4,30.9
2020-05-14T01:19:00Z,00000388,01000608,0001.82,0000.71,0000.52,0000.60,0000.09,-000.24,0000.14,-000.00,0000.11,24.2,00.4,0673.4,31.0
2020-05-14T01:20:00Z,00000388,01000608,0000.98,0000.63,0000.23,0000.63,0000.28,-000.46,0000.24,0000.15,0000.16,24.2,00.4,0673.4,30.9
2020-05-14T01:21:00Z,00000388,01000608,0001.58,0000.44,0000.28,0000.27,0000.10,-000.27,0000.16,0000.31,0000.09,24.2,00.4,0673.4,30.9
2020-05-14T01:22:00Z,00000388,01000608,0000.91,0000.38,0000.22,0000.48,0000.17,-000.19,0000.11,0000.03,0000.16,24.2,00.5,0673.4,31.0
2020-05-14T01:23:00Z,00000388,01000608,0001.53,0001.12,0000.47,-000.08,0000.48,-000.22,0000.20,0000.30,0000.19,24.2,00.5,0673.4,30.9
2020-05-14T01:24:00Z,00000388,01000608,0002.64,0001.26,0000.58,0000.77,0000.41,0000.14,0000.21,0000.18,0000.20,24.1,00.6,0673.3,30.9
2020-05-14T01:25:00Z,00000388,01000608,0001.37,0001.17,0000.92,0000.67,0000.09,0000.18,0000.08,0000.17,0000.02,24.2,00.7,0673.3,30.9
2020-05-14T01:26:00Z,00000388,01000608,0002.53,0001.47,0000.16,0000.48,0000.38,0000.11,0000.23,0000.05,0000.04,24.2,00.7,0673.3,31.0
2020-05-14T01:27:00Z,00000388,01000608,0001.77,0001.04,0000.82,-000.19,0000.51,-000.14,0000.19,0000.16,0000.21,24.1,00.8,0673.3,31.0
2020-05-14T01:28:00Z,00000388,01000608,0002.66,0001.08,0000.37,0001.68,0000.44,0000.10,0000.19,0000.13,0000.12,24.1,00.7,0673.2,30.9
2020-05-14T01:29:00Z,00000388,01000608,0001.62,0000.87,0000.07,0000.07,0000.66,-000.51,0000.06,0000.31,0000.14,24.1,00.8,0673.2,30.9
2020-05-14T01:30:00Z,00000388,01000608,0002.88,0001.38,0000.82,-000.41,0000.57,-000.13,0000.16,0000.07,0000.11,24.1,00.7,0673.2,31.0
2020-05-14T01:31:00Z,00000388,01000608,0003.37,0001.81,0000.51,0001.43,0000.17,-000.27,0000.19,0000.07,-000.09,24.1,00.7,0673.2,31.0
2020-05-14T01:32:00Z,00000388,01000608,0002.34,0001.32,0000.25,0001.09,0000.20,-000.29,0000.03,0000.10,0000.17,24.1,00.7,0673.2,31.0
2020-05-14T01:33:00Z,00000388,01000608,0002.81,0001.71,0000.45,0000.33,0000.37,-000.36,0000.25,0000.30,0000.25,24.1,00.7,0673.2,30.9
2020-05-14T01:34:00Z,00000388,01000608,0002.31,0001.31,0000.32,0000.31,0000.34,-000.03,0000.08,-000.02,0000.03,24.1,00.8,0673.2,31.0
2020-05-14T01:35:00Z,00000388,01000608,0002.93,0001.36,0000.31,0000.20,0000.54,-000.28,0000.16,0000.29,0000.14,24.1,00.8,0673.2,31.0
2020-05-14T01:36:00Z,00000388,01000608,0002.30,0001.17,0000.86,0001.09,0000.28,-000.36,-000.03,-000.03,0000.02,24.1,00.8,0673.2,31.0
2020-05-14T01:37:00Z,00000388,01000608,0001.62,0001.01,0000.13,0000.28,0000.64,-000.36,0000.16,0000.11,0000.09,24.1,00.7,0673.2,31.0
2020-05-14T01:38:00Z,00000388,01000608,0000.66,0001.11,0000.91,0001.11,0000.63,-000.18,0000.23,0000.15,0000.19,24.1,00.7,0673.2,31.0
2020-05-14T01:39:00Z,00000388,01000608,0001.94,0001.28,0001.04,0000.49,0000.67,-000.02,0000.18,0000.12,-000.07,24.1,00.7,0673.2,31.0
2020-05-14T01:40:00Z,00000388,01000608,0002.82,0001.40,0000.90,0000.84,0000.13,0000.55,0000.03,0000.03,0000.06,24.1,00.7,0673.2,30.9
2020-05-14T01:41:00Z,00000388,01000608,0001.54,0001.08,0001.20,0000.87,0000.31,-000.08,0000.02,0000.07,0000.13,24.1,00.7,0673.2,30.9
2020-05-14T01:42:00Z,00000388,01000608,0001.96,0001.12,0001.23,0000.54,0000.20,-000.13,0000.13,-000.00,0000.01,24.1,00.7,0673.2,31.0
2020-05-14T01:43:00Z,00000388,01000608,0000.45,0000.83,0000.28,0000.42,0000.47,-000.15,0000.18,0000.18,0000.20,24.1,00.6,0673.2,30.9
2020-05-14T01:44:00Z,00000388,01000608,0001.08,0001.33,0000.44,0000.18,0000.57,0000.07,-000.07,0000.06,-000.20,24.1,00.6,0673.2,30.9
2020-05-14T01:45:00Z,00000388,01000608,0001.60,0000.88,0000.48,0000.50,-000.08,-000.32,0000.13,0000.01,0000.12,24.1,00.6,0673.2,31.0
2020-05-14T01:46:00Z,00000388,01000608,0002.03,0001.08,0000.75,-000.47,0000.46,-000.26,0000.05,0000.15,0000.18,24.1,00.6,0673.2,30.9
2020-05-14T01:47:00Z,00000388,01000608,0002.03,0001.38,0001.07,0001.21,0000.24,0000.17,0000.18,0000.12,0000.02,24.0,00.5,0673.1,30.9
2020-05-14T01:48:00Z,00000388,01000608,0001.20,0001.18,0000.48,0000.74,0000.72,0000.08,0000.19,0000.02,0000.20,24.0,00.5,0673.1,30.9
2020-05-14T01:49:00Z,00000388,01000608,0001.76,0000.97,0000.67,0000.67,0000.39,0000.07,0000.01,0000.17,0000.04,24.1,00.4,0673.1,30.9
2020-05-14T01:50:00Z,00000388,01000608,0002.65,0001.60,0000.83,0000.51,0000.09,0000.17,0000.07,-000.06,-000.06,24.0,00.4,0673.1,30.9
2020-05-14T01:51:00Z,00000388,01000608,0001.12,0001.56,0000.14,-000.04,0000.31,-000.13,0000.08,0000.14,0000.16,24.1,00.4,0673.1,30.9
2020-05-14T01:52:00Z,00000388,01000608,0002.52,0000.99,0000.37,-000.14,0000.31,-000.10,0000.15,0000.20,-000.04,24.1,00.4,0673.1,31.0
2020-05-14T01:53:00Z,00000388,01000608,0001.78,0001.33,0000.64,0000.54,0000.63,-000.23,0000.06,-000.02,0000.05,24.0,00.4,0673.1,31.0
2020-05-14T01:54:00Z,00000388,01000608,0001.14,0001.84,0000.57,0000.00,0000.76,-000.20,0000.27,0000.42,0000.23,24.0,00.4,0673.1,30.9
2020-05-14T01:55:00Z,00000388,01000608,0003.26,0001.46,0000.84,0000.20,0000.48,0000.11,-000.01,-000.02,0000.05,24.0,00.4,0673.1,31.0
2020-05-14T01:56:00Z,00000388,01000608,0002.83,0001.39,0001.20,0001.20,0000.60,0000.22,0000.14,-000.20,0000.05,24.1,00.4,0673.1,31.0
2020-05-14T01:57:00Z,00000388,41000608,,,,,,,,,,24.1,00.2,0673.0,30.9
2020-05-14T01:58:00Z,00000388,61000608,,,,,,,,,,24.2,00.3,0672.1,31.0
2020-05-14T01:59:00Z,00000388,21000608,,,,,,,,,,24.3,00.2,0672.1,30.9
2020-05-14T02:00:00Z,00000388,21000608,,,,,,,,,,24.3,00.2,0672.1,31.0
2020-05-14T02:01:00Z,00000388,21000608,,,,,,,,,,24.3,00.2,0672.1,30.9
2020-05-14T02:02:00Z,00000388,21000608,,,,,,,,,,24.3,00.2,0672.1,30.9
2020-05-14T02:03:00Z,00000388,61000608,,,,,,,,,,24.3,00.2,0672.1,30.9
2020-05-14T02:04:00Z,00000388,41000608,0000.88,0001.78,0000.40,0000.68,0000.43,0000.15,0000.24,0000.21,0000.08,24.1,00.2,0673.1,30.9
2020-05-14T02:05:00Z,00000388,01000608,0001.98,0001.35,0000.44,0001.02,0000.11,0000.44,-000.07,0000.12,0000.05,24.1,00.3,0673.2,30.9
2020-05-14T02:06:00Z,00000388,01000608,0002.83,0001.40,0000.53,0000.50,-000.11,-000.08,0000.16,0000.18,0000.04,24.1,00.3,0673.3,30.9
2020-05-14T02:07:00Z,00000388,01000608,0002.03,0001.58,0000.24,0000.70,0000.14,-000.21,0000.15,0000.09,0000.16,24.1,00.2,0673.3,30.9
2020-05-14T02:08:00Z,00000388,01000608,0002.28,0001.55,0000.48,0001.01,0000.55,0000.25,0000.22,0000.11,0000.06,24.1,00.2,0673.3,30.9
2020-05-14T02:09:00Z,00000388,01000608,0002.98,0001.92,0000.58,0000.18,0000.02,0000.49,0000.07,0000.12,0000.10,24.1,00.2,0673.3,30.9
2020-05-14T02:10:00Z,00000388,01000608,0002.02,0001.75,0000.78,0000.45,0000.20,0000.35,-000.05,0000.02,-000.06,24.1,00.2,0673.3,30.9
2020-05-14T02:11:00Z,00000388,01000608,0001.73,0002.09,0000.85,-000.09,0000.64,-000.15,0000.23,0000.01,0000.15,24.1,00.2,0673.2,30.9
2020-05-14T02:12:00Z,00000388,01000608,0001.44,0001.67,0000.36,-000.01,0000.26,-000.39,0000.22,0000.28,-000.04,24.1,00.2,0673.2,30.9
2020-05-14T02:13:00Z,00000388,01000608,0002.32,0001.50,0000.45,0001.35,0000.59,0000.11,0000.01,0000.02,0000.20,24.1,00.1,0673.2,30.9
2020-05-14T02:14:00Z,00000388,01000608,0002.36,0001.72,0000.17,0000.78,0000.43,0000.16,0000.10,-000.10,-000.05,24.1,00.2,0673.2,30.9
2020-05-14T02:15:00Z,00000388,01000608,0002.09,0001.23,0000.39,0000.22,0000.54,0000.24,0000.07,0000.36,0000.24,24.1,00.2,0673.2,30.9
2020-05-14T02:16:00Z,00000388,01000608,0001.45,0000.62,0000.03,0000.85,0000.44,0000.13,0000.18,0000.02,0000.03,24.1,00.3,0673.2,30.9
2020-05-14T02:17:00Z,00000388,01000608,0002.52,0000.90,0000.62,-000.22,0000.30,0000.50,0000.10,0000.21,0000.15,24.0,00.3,0673.1,30.9
2020-05-14T02:18:00Z,00000388,01000608,0002.47,0001.15,0000.74,-000.25,0000.46,0000.20,0000.30,0000.23,0000.19,24.0,00.3,0673.1,30.9
2020-05-14T02:19:00Z,00000388,01000608,0001.28,0001.14,0000.29,0000.82,-000.05,0000.14,0000.18,0000.02,0000.01,24.0,00.3,0673.1,30.9
2020-05-14T02:20:00Z,00000388,01000608,0001.51,0000.94,0000.84,-000.31,0000.31,0000.48,0000.19,0000.18,0000.37,24.0,00.3,0673.1,30.9
2020-05-14T02:21:00Z,00000388,01000608,0001.80,0001.18,0001.10,0000.51,0000.54,0000.07,-000.14,0000.05,-000.07,24.0,00.3,0673.1,30.9
2020-05-14T02:22:00Z,00000388,01000608,0001.62,0001.52,0000.62,0001.30,0000.13,0000.07,0000.12,-000.01,-000.01,24.0,00.2,0673.1,30.9
2020-05-14T02:23:00Z,00000388,01000608,0002.76,0000.77,0000.48,0000.36,0000.46,0000.31,0000.10,0000.15,-000.17,24.0,00.2,0673.1,30.9
2020-05-14T02:24:00Z,00000388,01000608,0001.80,0001.29,0000.83,0001.13,0000.19,0000.31,0000.14,0000.01,0000.23,24.0,00.2,0673.1,30.9
2020-05-14T02:25:00Z,00000388,01000608,0001.50,0001.35,0000.91,0000.16,0000.48,-000.13,0000.08,0000.23,0000.10,24.0,00.3,0673.1,30.9
2020-05-14T02:26:00Z,00000388,01000608,0001.41,0000.88,0000.85,0000.79,0000.11,0000.03,0000.37,0000.27,0000.14,24.0,00.3,0673.1,30.9
2020-05-14T02:27:00Z,00000388,01000608,0001.48,0001.04,0000.39,0000.55,0000.36,0000.04,-000.00,0000.07,-000.00,24.0,00.3,0673.1,30.9
2020-05-14T02:28:00Z,00000388,01000608,0001.89,0001.32,0000.12,0000.13,0000.10,-000.06,0000.06,0000.15,0000.22,24.0,00.3,0673.1,30.9
2020-05-14T02:29:00Z,00000388,01000608,0001.46,0001.60,0000.43,0000.13,0000.36,0000.17,0000.15,0000.07,0000.04,24.0,00.3,0673.1,30.9
2020-05-14T02:30:00Z,00000388,01000608,0001.32,0001.69,0000.60,0000.90,0000.27,0000.12,0000.02,-000.04,0000.08,24.0,00.2,0673.1,30.9
2020-05-14T02:31:00Z,00000388,01000608,0001.16,0001.28,0000.96,0001.05,0000.30,0000.29,0000.08,0000.17,-000.09,24.0,00.3,0673.1,30.9
2020-05-14T02:32:00Z,00000388,01000608,0001.95,0000.92,0000.95,-000.03,0000.37,-000.03,0000.07,0000.11,0000.14,24.0,00.3,0673.0,30.9
2020-05-14T02:33:00Z,00000388,01000608,0001.04,0001.13,0001.21,0000.10,0000.61,0000.18,0000.17,-000.14,0000.02,24.0,00.2,0673.0,31.0
2020-05-14T02:34:00Z,00000388,01000608,0002.60,0001.39,0000.53,0000.50,0000.29,0000.27,0000.04,0000.17,-000.01,24.0,00.2,0673.0,31.0
2020-05-14T02:35:00Z,00000388,01000608,0001.90,0001.17,0000.28,0000.92,0000.37,0000.47,0000.13,0000.07,0000.20,24.0,00.2,0673.0,30.9
2020-05-14T02:36:00Z,00000388,01000608,0001.77,0001.15,0000.67,0000.90,0000.05,0000.24,0000.07,0000.09,0000.07,24.0,00.2,0673.0,30.9
2020-05-14T02:37:00Z,00000388,01000608,0001.72,0000.81,0000.43,-000.75,0000.04,-000.24,-000.04,0000.11,0000.13,24.0,00.2,0673.0,30.9
2020-05-14T02:38:00Z,00000388,01000608,0001.24,0001.31,0000.12,0000.22,-000.30,0000.08,0000.33,-000.02,0000.12,24.0,00.1,0673.0,30.9
2020-05-14T02:39:00Z,00000388,01000608,0001.49,0001.01,0000.34,-000.65,0000.16,0000.21,-000.01,0000.17,-000.12,24.0,00.2,0673.0,31.0
2020-05-14T02:40:00Z,00000388,01000608,0001.02,0001.35,0000.33,0000.88,0000.22,0000.00,0000.08,0000.08,0000.12,24.0,00.2,0673.0,30.9
2020-05-14T02:41:00Z,00000388,01000608,0001.71,0001.12,0000.83,0000.50,0000.31,0000.22,0000.17,0000.10,0000.05,24.0,00.2,0672.9,30.9
2020-05-14T02:42:00Z,00000388,01000608,0002.67,0001.09,0000.39,0000.41,0000.48,0000.09,0000.14,0000.21,0000.21,24.0,00.2,0672.9,30.9
2020-05-14T02:43:00Z,00000388,01000608,0001.72,0001.19,0000.62,-000.15,0000.29,0000.34,-000.12,0000.00,-000.11,24.0,00.2,0672.9,31.0
2020-05-14T02:44:00Z,00000388,01000608,0001.18,0001.43,0000.25,0000.34,0000.35,0000.00,0000.16,-000.06,0000.17,24.0,00.1,0672.9,30.9
2020-05-14T02:45:00Z,00000388,01000608,0000.64,0001.15,0000.17,-000.28,0000.31,-000.19,0000.16,0000.03,-000.11,24.0,00.1,0672.9,30.9
2020-05-14T02:46:00Z,00000388,01000608,0000.90,0001.18,0000.13,0000.00,0000.18,-000.10,0000.07,0000.16,0000.08,24.0,00.1,0672.9,31.0
2020-05-14T02:47:00Z,00000388,01000608,0002.48,0000.76,0000.37,0000.85,0000.15,-000.13,0000.09,0000.16,0000.14,24.0,00.1,0672.9,30.9
2020-05-14T02:48:00Z,00000388,01000608,0002.19,0001.52,0000.24,0000.17,0000.21,-000.17,0000.11,-000.08,0000.12,24.0,00.1,0672.9,30.9
2020-05-14T02:49:00Z,00000388,01000608,0002.35,0001.13,0000.31,0000.63,0000.08,-000.39,-000.01,0000.21,-000.04,24.0,00.1,0672.9,30.9
2020-05-14T02:50:00Z,00000388,01000608,0002.07,0001.46,0000.12,-000.31,0000.10,0000.29,0000.10,-000.04,0000.11,24.0,00.1,0672.8,30.9
2020-05-14T02:51:00Z,00000388,01000608,0002.23,0001.07,0000.48,0001.86,-000.22,-000.37,0000.20,0000.19,0000.09,24.0,00.1,0672.8,31.0
2020-05-14T02:52:00Z,00000388,01000608,0002.43,0002.07,-000.07,0001.10,0000.28,0000.22,0000.08,0000.08,0000.15,24.0,00.2,0672.8,31.0
2020-05-14T02:53:00Z,00000388,01000608,0000.99,0001.01,0000.31,0000.85,0000.16,-000.28,0000.08,0000.17,0000.03,24.0,00.1,0672.8,31.0
2020-05-14T02:54:00Z,00000388,01000608,0001.89,0000.67,0000.20,0000.71,0000.17,-000.10,0000.14,-000.01,0000.05,24.0,00.2,0672.8,31.0
2020-05-14T02:55:00Z,00000388,01000608,0002.36,0001.02,0000.35,0000.86,0000.30,-000.11,-000.04,-000.01,-000.07,24.0,00.1,0672.7,30.9
2020-05-14T02:56:00Z,00000388,01000608,0001.54,0001.27,0000.03,0000.25,-000.34,0000.06,0000.06,-000.08,0000.09,24.0,00.0,0672.7,30.9
2020-05-14T02:57:00Z,00000388,41000608,,,,,,,,,,24.0,00.0,0672.7,31.0
2020-05-14T02:58:00Z,00000388,61000608,,,,,,,,,,24.1,00.0,0671.7,30.9
2020-05-14T02:59:00Z,00000388,21000608,,,,,,,,,,24.2,00.0,0671.6,30.9
2020-05-14T03:00:00Z,00000388,21000608,,,,,,,,,,24.2,00.0,0671.7,30.9
2020-05-14T03:01:00Z,00000388,21000608,,,,,,,,,,24.2,00.0,0671.7,31.0
2020-05-14T03:02:00Z,00000388,21000608,,,,,,,,,,24.2,00.0,0671.7,31.0
2020-05-14T03:03:00Z,00000388,61000608,,,,,,,,,,24.2,00.0,0671.7,30.9
2020-05-14T03:04:00Z,00000388,41000608,0001.09,0000.74,-000.05,0000.25,-000.06,0000.25,0000.28,0000.11,-000.12,24.0,00.1,0672.6,30.9
2020-05-14T03:05:00Z,00000388,01000608,0000.74,0000.41,0000.47,0000.33,0000.10,0000.02,0000.10,0000.20,0000.22,24.0,00.1,0672.7,31.0
2020-05-14T03:06:00Z,00000388,01000608,-001.40,0000.48,0000.79,0000.28,0000.41,0000.07,-000.02,0000.02,0000.09,24.0,00.2,0672.7,30.9
2020-05-14T03:07:00Z,00000388,01000608,0000.34,-000.13,-000.17,0000.23,-000.04,0000.33,0000.15,0000.14,-000.05,24.0,00.2,0672.7,31.0
2020-05-14T03:08:00Z,00000388,01000608,0000.45,0000.14,0000.14,0000.12,0000.15,0000.09,0000.04,-000.05,0000.05,24.0,00.2,0672.7,31.0
2020-05-14T03:09:00Z,00000388,01000608,0001.82,0000.39,0000.06,0000.46,-000.00,0000.13,0000.02,-000.04,0000.01,24.0,00.2,0672.7,31.0
2020-05-14T03:10:00Z,00000388,01000608,0000.63,-000.15,0000.48,0000.04,0000.24,0000.13,0000.09,0000.08,0000.14,23.9,00.2,0672.7,31.0